[[{"header":{"parameterUnit":"m.s-1","parameterCategory":1,"la1":30.2991,"la2":30.254,"lo1":-89.0895,"lo2":-89.0444,"dy":0.0017,"dx":0.0017,"nx":28,"ny":28,"refTime":"2024-06-30T21:00:00:Z","depth":0,"parameterNumber":2,"parameterNumberName":"U-component_of_WINDS"},"data":[0,0,0,0,0,0,0,0,0,0,0,0,0,0,0,0,0,0,0,0,0,0,0,0,0,0,0,0,0,0,0,0,0,0,0,0,0,0,0,0,0,0,0,0,0,0,0,0,0,0,0,0,0,0,0,0,0,0,0.0571,0.0571,0,0.0587,0.0587,0.0587,0.0589,0.0588,0.0588,0.0588,0.0604,0.0605,0.0605,0,0,0,0,0,0,0,0,0,0,0,0,0,0.0543,0.0544,0.0571,0.0571,0.0572,0.0587,0.0587,0.0587,0.0589,0.0588,0.0588,0.0588,0.0604,0.0604,0.0605,0,0,0,0,0,0,0,0,0,0,0,0,0,0.0557,0.0544,0.0571,0.0574,0.0574,0.0587,0.0587,0.0587,0.0589,0.0588,0.0588,0.0588,0.0604,0.0604,0.0605,0.0615,0,0,0.0608,0.0608,0,0,0,0,0,0,0,0,0.0556,0.0558,0.0573,0.0574,0.0574,0.0585,0.0583,0.0597,0.0589,0.0583,0.0588,0.0588,0.0598,0.0599,0.0603,0.0616,0.0617,0.0608,0.0608,0.0609,0.0609,0,0,0,0,0,0,0,0.0555,0.0557,0.0577,0.0574,0.0574,0.0575,0.0577,0.0586,0.0592,0.0584,0.0584,0.0586,0.0598,0.0602,0.0603,0.0617,0.0608,0.0609,0.0609,0.061,0.0641,0.0641,0,0,0,0,0,0,0.0554,0.0556,0.0577,0.0578,0.0564,0.0576,0.0577,0.0582,0.0592,0.0593,0.0586,0.0586,0.0601,0.0602,0.0604,0.0617,0.0609,0.061,0.061,0.0641,0.0641,0.0642,0,0,0,0,0,0,0.0553,0.0555,0.0576,0.0567,0.057,0.0576,0.0582,0.0583,0.0586,0.0593,0.0595,0.0589,0.06,0.0603,0.0613,0.0618,0.061,0.0611,0.064,0.0641,0.0641,0.0643,0,0,0,0,0,0,0.0552,0.0555,0.0559,0.0567,0.057,0.0585,0.0582,0.0583,0.0588,0.0588,0.0596,0.0597,0.06,0.0612,0.0614,0.0619,0.0611,0.064,0.0641,0.0641,0.0643,0.0644,0.0645,0,0,0,0,0,0.0551,0.0558,0.0559,0.0561,0.0575,0.0585,0.0587,0.059,0.0588,0.0592,0.0597,0.0597,0.0617,0.0613,0.0615,0.062,0.064,0.064,0.0641,0.0642,0.0644,0.0645,0,0,0,0,0,0,0.055,0.0559,0.056,0.057,0.0577,0.0585,0.059,0.0591,0.0598,0.0598,0.0602,0.0604,0.0614,0.0618,0.0614,0.0631,0.0628,0.0629,0.0628,0.0629,0.063,0.0629,0.0612,0,0,0,0,0,0.0551,0.0558,0.0566,0.0574,0.0578,0.0583,0.0588,0.059,0.0597,0.06,0.0605,0.0612,0.062,0.0625,0.0632,0.0644,0.0646,0.0649,0.0649,0.065,0.0651,0.0658,0.066,0.0644,0.0644,0.0644,0,0,0.0553,0.0559,0.0563,0.0574,0.058,0.0587,0.0586,0.0594,0.06,0.0601,0.0611,0.0616,0.0624,0.0635,0.064,0.0638,0.0656,0.0651,0.0652,0.0652,0.0659,0.0661,0.0662,0.0644,0.0644,0.0644,0,0,0.056,0.0565,0.0573,0.0579,0.0587,0.0591,0.0593,0.0602,0.0605,0.0615,0.0617,0.0624,0.0637,0.0643,0.0648,0.0659,0.066,0.0662,0.0666,0.0673,0.0675,0.0676,0.068,0.0682,0.0663,0.0663,0.0663,0,0.0562,0.0573,0.0577,0.0585,0.0591,0.0593,0.0601,0.0607,0.0617,0.0621,0.0619,0.0636,0.0642,0.0655,0.0658,0.0661,0.0664,0.0661,0.0674,0.0675,0.0676,0.0681,0.0682,0.0663,0.0663,0.0663,0.0663,0,0.0575,0.0583,0.0588,0.0599,0.0604,0.0613,0.0618,0.0624,0.0626,0.0631,0.0642,0.0649,0.0658,0.0661,0.0663,0.0675,0.0674,0.0673,0.067,0.0678,0.0682,0.0684,0.0663,0.0663,0.0663,0.0663,0,0,0.0581,0.0594,0.0596,0.0601,0.0611,0.0618,0.0627,0.0636,0.0641,0.0649,0.0657,0.0668,0.0668,0.0674,0.0676,0.0683,0.0692,0.0681,0.0681,0.0683,0.0706,0.0707,0.0709,0.0693,0.0693,0.0693,0.0706,0,0.059,0.0605,0.061,0.0623,0.0631,0.0634,0.0642,0.0649,0.0654,0.0662,0.0667,0.0675,0.0674,0.0678,0.0684,0.0689,0.0697,0.0689,0.07,0.0701,0.0698,0.0711,0.0711,0.0722,0.0707,0.0707,0.0708,0,0.0602,0.061,0.0624,0.0634,0.0638,0.0644,0.0654,0.0662,0.067,0.0673,0.068,0.0683,0.0693,0.0689,0.0704,0.0698,0.0703,0.0707,0.0708,0.0709,0.0704,0.0712,0.0726,0.0728,0.071,0.071,0.071,0,0.0605,0.062,0.063,0.0635,0.0647,0.0652,0.0657,0.0665,0.0671,0.068,0.0684,0.0694,0.0699,0.0706,0.0712,0.0709,0.0726,0.0723,0.0729,0.0729,0.0732,0.0732,0.0747,0.0736,0.0736,0.0735,0.0735,0,0.0614,0.0623,0.0632,0.0639,0.0649,0.0655,0.0665,0.067,0.0678,0.0686,0.0689,0.0697,0.0703,0.0712,0.0716,0.0728,0.073,0.0733,0.0734,0.0733,0.0733,0.0736,0.0736,0.0736,0.0736,0.0736,0.0736,0,0.062,0.0626,0.0638,0.0649,0.0652,0.0659,0.0668,0.0675,0.068,0.0691,0.0693,0.0702,0.0712,0.0719,0.0732,0.0735,0.0748,0.0748,0.0745,0.0745,0.0751,0.0751,0.0769,0.0772,0.0758,0.0759,0.0759,0,0.0625,0.0632,0.0644,0.065,0.0655,0.0664,0.067,0.0677,0.0683,0.0694,0.07,0.0711,0.072,0.0736,0.0744,0.0754,0.0755,0.0761,0.0757,0.0755,0.0756,0.0755,0.0756,0.0762,0.0762,0.0762,0.0762,0,0.0634,0.0638,0.0646,0.0657,0.0664,0.0673,0.0681,0.0686,0.0694,0.0701,0.0712,0.0719,0.0733,0.0743,0.0755,0.0761,0.0763,0.0763,0.0765,0.0764,0.0762,0.0764,0.0747,0.0763,0.0763,0.0763,0.0762,0.0762,0.064,0.0647,0.0657,0.0667,0.0674,0.0682,0.0689,0.0696,0.0705,0.0717,0.072,0.0732,0.0742,0.0757,0.0763,0.0773,0.0772,0.0775,0.0775,0.0776,0.0777,0.076,0.0775,0.0775,0.0775,0.0775,0.0775,0,0.065,0.0657,0.0666,0.0678,0.0686,0.0688,0.0698,0.0704,0.0715,0.0724,0.0733,0.0746,0.0757,0.0765,0.0777,0.0783,0.0784,0.0786,0.0785,0.0787,0.0776,0.0774,0.0784,0.0784,0.0784,0.0784,0.0784,0.0784,0.0656,0.0668,0.0672,0.0688,0.0694,0.0706,0.0711,0.0719,0.0726,0.0741,0.075,0.0756,0.0765,0.0778,0.0788,0.079,0.0794,0.0796,0.0798,0.0788,0.0787,0.0786,0.0784,0.0797,0.0797,0.0808,0.0808,0.0808]},{"header":{"parameterUnit":"m.s-1","parameterCategory":1,"la1":30.2991,"la2":30.254,"lo1":-89.0895,"lo2":-89.0444,"dy":0.0017,"dx":0.0017,"nx":28,"ny":28,"refTime":"2024-06-30T21:00:00:Z","depth":0,"parameterNumber":3,"parameterNumberName":"V-component_of_WINDS"},"data":[0,0,0,0,0,0,0,0,0,0,0,0,0,0,0,0,0,0,0,0,0,0,0,0,0,0,0,0,0,0,0,0,0,0,0,0,0,0,0,0,0,0,0,0,0,0,0,0,0,0,0,0,0,0,0,0,0,0,-2.1686,-2.1687,0,-2.1797,-2.1798,-2.1799,-2.1808,-2.1807,-2.1806,-2.1805,-2.1916,-2.192,-2.1924,0,0,0,0,0,0,0,0,0,0,0,0,0,-2.1481,-2.1485,-2.1686,-2.1687,-2.1689,-2.1796,-2.1798,-2.1799,-2.1809,-2.1807,-2.1806,-2.1804,-2.1915,-2.192,-2.1925,0,0,0,0,0,0,0,0,0,0,0,0,0,-2.1579,-2.1486,-2.1686,-2.1706,-2.1709,-2.1796,-2.1798,-2.18,-2.1809,-2.1807,-2.1805,-2.1804,-2.1913,-2.1919,-2.1925,-2.1998,0,0,-2.1944,-2.1947,0,0,0,0,0,0,0,0,-2.1573,-2.1586,-2.1702,-2.1705,-2.1708,-2.1787,-2.1767,-2.1866,-2.1809,-2.1771,-2.1805,-2.1803,-2.1875,-2.1884,-2.1908,-2.2004,-2.2008,-2.1944,-2.1948,-2.1951,-2.1952,0,0,0,0,0,0,0,-2.1567,-2.1582,-2.173,-2.1703,-2.1708,-2.171,-2.1722,-2.1786,-2.1831,-2.1774,-2.1775,-2.1788,-2.1876,-2.1902,-2.1911,-2.201,-2.1944,-2.195,-2.1953,-2.1956,-2.2172,-2.2174,0,0,0,0,0,0,-2.1556,-2.1576,-2.1726,-2.1733,-2.1635,-2.1715,-2.1728,-2.1763,-2.1831,-2.1839,-2.179,-2.1788,-2.1893,-2.1904,-2.1915,-2.2006,-2.1951,-2.1956,-2.196,-2.217,-2.2172,-2.2175,0,0,0,0,0,0,-2.1552,-2.1569,-2.1722,-2.1655,-2.1674,-2.172,-2.176,-2.1767,-2.1793,-2.1842,-2.185,-2.1808,-2.1892,-2.1906,-2.1978,-2.201,-2.1959,-2.1965,-2.2168,-2.2171,-2.2174,-2.2188,0,0,0,0,0,0,-2.1546,-2.1568,-2.1596,-2.1655,-2.1678,-2.1783,-2.1762,-2.177,-2.1804,-2.1803,-2.1862,-2.187,-2.1892,-2.1969,-2.1984,-2.2017,-2.1969,-2.2165,-2.2169,-2.2173,-2.2185,-2.2191,-2.2196,0,0,0,0,0,-2.1538,-2.1595,-2.1598,-2.1616,-2.1715,-2.1785,-2.1798,-2.1822,-2.1806,-2.1835,-2.1867,-2.1868,-2.2004,-2.1976,-2.1993,-2.2029,-2.2163,-2.2168,-2.2172,-2.2182,-2.219,-2.2196,0,0,0,0,0,0,-2.1537,-2.1603,-2.1607,-2.1684,-2.1729,-2.1786,-2.1824,-2.1829,-2.1879,-2.1876,-2.1903,-2.1917,-2.1988,-2.2015,-2.1983,-2.2104,-2.2082,-2.209,-2.2083,-2.2091,-2.2097,-2.2089,-2.1975,0,0,0,0,0,-2.1546,-2.1599,-2.1653,-2.1716,-2.1739,-2.1777,-2.1809,-2.1824,-2.1871,-2.189,-2.1927,-2.1972,-2.2025,-2.2059,-2.2111,-2.2189,-2.2202,-2.2222,-2.2227,-2.2232,-2.2239,-2.2283,-2.2293,-2.219,-2.219,-2.219,0,0,-2.1565,-2.1608,-2.1639,-2.1717,-2.1754,-2.1807,-2.1793,-2.185,-2.189,-2.1898,-2.1969,-2.1998,-2.205,-2.2125,-2.216,-2.2151,-2.227,-2.2238,-2.2241,-2.2246,-2.2289,-2.2299,-2.2307,-2.2193,-2.2193,-2.2192,0,0,-2.1627,-2.1664,-2.1721,-2.1759,-2.1814,-2.184,-2.1854,-2.1911,-2.1931,-2.2002,-2.201,-2.2057,-2.2147,-2.2185,-2.2216,-2.2293,-2.2296,-2.2309,-2.2339,-2.2382,-2.239,-2.2398,-2.2426,-2.2435,-2.2315,-2.2315,-2.2315,0,-2.1643,-2.1724,-2.175,-2.1807,-2.1842,-2.1853,-2.1911,-2.1946,-2.2015,-2.2039,-2.2027,-2.2141,-2.2177,-2.2262,-2.2281,-2.2305,-2.2322,-2.2302,-2.2387,-2.2395,-2.2402,-2.2429,-2.244,-2.2317,-2.2317,-2.2316,-2.2316,0,-2.1742,-2.1798,-2.1838,-2.1906,-2.1945,-2.2002,-2.2036,-2.2072,-2.2084,-2.2111,-2.2183,-2.2227,-2.2288,-2.2309,-2.2321,-2.2396,-2.2388,-2.2381,-2.236,-2.2412,-2.2439,-2.2449,-2.2318,-2.2318,-2.2318,-2.2317,0,0,-2.1805,-2.1888,-2.1902,-2.1934,-2.1997,-2.204,-2.2098,-2.2159,-2.219,-2.2237,-2.2287,-2.2364,-2.2358,-2.2393,-2.2409,-2.2447,-2.2506,-2.2435,-2.2437,-2.2448,-2.2592,-2.2597,-2.2609,-2.2508,-2.251,-2.2512,-2.2588,0,-2.1875,-2.1979,-2.2004,-2.2094,-2.2146,-2.2158,-2.2209,-2.2253,-2.228,-2.2328,-2.2357,-2.2411,-2.24,-2.2421,-2.2459,-2.2491,-2.2535,-2.2485,-2.2555,-2.2557,-2.2542,-2.2623,-2.2628,-2.2698,-2.2598,-2.26,-2.2601,0,-2.1969,-2.2021,-2.2115,-2.2173,-2.2196,-2.2241,-2.2299,-2.2345,-2.2395,-2.2412,-2.2452,-2.2464,-2.2525,-2.25,-2.2585,-2.255,-2.258,-2.26,-2.2603,-2.2611,-2.2583,-2.2633,-2.2721,-2.2731,-2.2618,-2.2616,-2.2615,0,-2.2007,-2.21,-2.2169,-2.2195,-2.2264,-2.2295,-2.2325,-2.2374,-2.2409,-2.2459,-2.2482,-2.2539,-2.257,-2.2613,-2.2641,-2.262,-2.2723,-2.27,-2.2739,-2.2738,-2.276,-2.2758,-2.2854,-2.2778,-2.2778,-2.2778,-2.2778,0,-2.2082,-2.214,-2.2187,-2.2229,-2.2295,-2.2323,-2.2387,-2.2416,-2.246,-2.2508,-2.2521,-2.2566,-2.26,-2.2649,-2.2671,-2.2738,-2.2751,-2.2767,-2.2772,-2.2766,-2.2764,-2.2786,-2.2782,-2.2781,-2.278,-2.278,-2.2779,0,-2.2136,-2.2169,-2.2246,-2.2305,-2.2321,-2.2366,-2.2416,-2.2458,-2.2485,-2.2547,-2.2562,-2.2605,-2.2664,-2.2696,-2.277,-2.2784,-2.286,-2.2862,-2.2843,-2.2845,-2.2882,-2.2879,-2.2996,-2.3013,-2.2925,-2.2926,-2.2927,0,-2.2182,-2.2227,-2.2291,-2.2325,-2.2355,-2.2409,-2.2446,-2.2475,-2.2513,-2.2574,-2.2608,-2.2669,-2.2718,-2.2812,-2.285,-2.2906,-2.291,-2.2947,-2.2919,-2.2912,-2.2912,-2.2909,-2.2914,-2.2952,-2.2953,-2.2954,-2.2954,0,-2.226,-2.2275,-2.2327,-2.2386,-2.2429,-2.2476,-2.2523,-2.255,-2.2587,-2.2628,-2.2689,-2.2728,-2.2804,-2.2864,-2.2924,-2.2954,-2.2961,-2.2963,-2.2975,-2.297,-2.2958,-2.2966,-2.2857,-2.296,-2.296,-2.2959,-2.2959,-2.2959,-2.2311,-2.2352,-2.2404,-2.2462,-2.2501,-2.2545,-2.2587,-2.262,-2.2672,-2.2737,-2.2751,-2.2816,-2.2866,-2.2947,-2.2979,-2.303,-2.3023,-2.304,-2.3044,-2.3048,-2.305,-2.2949,-2.3041,-2.3041,-2.3041,-2.3041,-2.3041,0,-2.2391,-2.2425,-2.2478,-2.2544,-2.259,-2.2593,-2.2645,-2.2683,-2.2741,-2.2787,-2.2836,-2.2907,-2.2965,-2.3007,-2.3067,-2.3099,-2.3104,-2.3114,-2.3112,-2.3119,-2.3053,-2.3037,-2.3109,-2.3109,-2.3109,-2.3109,-2.3109,-2.3109,-2.2437,-2.2507,-2.2528,-2.2618,-2.2651,-2.2716,-2.2746,-2.2786,-2.2823,-2.2902,-2.2951,-2.2979,-2.3024,-2.3086,-2.314,-2.3151,-2.3172,-2.3182,-2.3193,-2.3131,-2.3124,-2.3117,-2.3102,-2.3187,-2.3187,-2.3255,-2.3256,-2.3257]}]]